| time (UTC) | temp F | wind direction | speed MPH | gust MPH | rain 1hr in | rain 24hr in | rain mn in | humidity % | barometer mb |
| 20260505020550 | 73 | 203 | 5.0 | 9.0 | 0.00 | 0.00 | 0.00 | 86 | 1008.6 |
| 20260505020048 | 73 | 147 | 2.0 | 9.0 | 0.00 | 0.00 | 0.00 | 86 | 1008.7 |
| 20260505015545 | 73 | 131 | 3.0 | 8.0 | 0.00 | 0.00 | 0.00 | 86 | 1008.7 |
| 20260505015041 | 73 | 151 | 5.0 | 6.0 | 0.00 | 0.00 | 0.00 | 86 | 1008.6 |
| 20260505014538 | 73 | 159 | 3.0 | 5.0 | 0.00 | 0.00 | 0.00 | 86 | 1008.5 |
| 20260505014036 | 74 | 162 | 3.0 | 5.0 | 0.00 | 0.00 | 0.00 | 86 | 1008.6 |
| 20260505013532 | 74 | 180 | 2.0 | 5.0 | 0.00 | 0.00 | 0.00 | 85 | 1008.4 |
| 20260505013030 | 74 | 140 | 3.0 | 4.0 | 0.00 | 0.00 | 0.00 | 86 | 1008.5 |
| 20260505012528 | 74 | 185 | 1.0 | 4.0 | 0.00 | 0.00 | 0.00 | 85 | 1008.2 |
| 20260505012025 | 74 | 187 | 2.0 | 5.0 | 0.00 | 0.00 | 0.00 | 84 | 1008.3 |
| 20260505011520 | 75 | 151 | 5.0 | 6.0 | 0.00 | 0.00 | 0.00 | 83 | 1008.3 |
| 20260505011018 | 75 | 203 | 1.0 | 7.0 | 0.00 | 0.00 | 0.00 | 83 | 1008.2 |
| 20260505010513 | 75 | 245 | 0.0 | 3.0 | 0.00 | 0.00 | 0.00 | 83 | 1008.2 |
| 20260505010010 | 75 | 140 | 4.0 | 7.0 | 0.00 | 0.00 | 0.00 | 82 | 1007.9 |
| 20260505005506 | 76 | 195 | 0.0 | 7.0 | 0.00 | 0.00 | 0.00 | 82 | 1008.2 |
| 20260505005004 | 76 | 166 | 3.0 | 4.0 | 0.00 | 0.00 | 0.00 | 81 | 1008.0 |
| 20260505004501 | 76 | 208 | 11.0 | 11.0 | 0.00 | 0.00 | 0.00 | 80 | 1008.0 |
| 20260505003958 | 77 | 188 | 0.0 | 9.0 | 0.00 | 0.00 | 0.00 | 80 | 1008.1 |
| 20260505003455 | 77 | 240 | 3.0 | 8.0 | 0.00 | 0.00 | 0.00 | 80 | 1008.2 |
| 20260505002950 | 77 | 147 | 12.0 | 13.0 | 0.00 | 0.00 | 0.00 | 79 | 1008.2 |
| 20260505002447 | 77 | 202 | 3.0 | 8.0 | 0.00 | 0.00 | 0.00 | 79 | 1008.1 |
| 20260505001945 | 78 | 139 | 2.0 | 7.0 | 0.00 | 0.00 | 0.00 | 79 | 1008.2 |
| 20260505001443 | 78 | 188 | 0.0 | 11.0 | 0.00 | 0.00 | 0.00 | 79 | 1008.2 |
| 20260505000939 | 78 | 209 | 0.0 | 5.0 | 0.00 | 0.00 | 0.00 | 78 | 1008.2 |
| 20260505000438 | 78 | 212 | 4.0 | 9.0 | 0.00 | 0.00 | 0.00 | 78 | 1008.3 |
| 20260504235934 | 78 | 231 | 6.0 | 7.0 | 0.00 | 0.00 | 0.00 | 78 | 1008.4 |
| 20260504235431 | 78 | 226 | 5.0 | 9.0 | 0.00 | 0.00 | 0.00 | 77 | 1008.3 |
| 20260504234927 | 79 | 163 | 6.0 | 9.0 | 0.00 | 0.00 | 0.00 | 76 | 1008.5 |
| 20260504234425 | 79 | 180 | 5.0 | 12.0 | 0.00 | 0.00 | 0.00 | 76 | 1008.7 |
| 20260504233921 | 79 | 196 | 4.0 | 8.0 | 0.00 | 0.00 | 0.00 | 76 | 1008.6 |
| 20260504233417 | 79 | 228 | 6.0 | 11.0 | 0.00 | 0.00 | 0.00 | 76 | 1008.4 |
| 20260504232914 | 79 | 244 | 8.0 | 10.0 | 0.00 | 0.00 | 0.00 | 75 | 1008.6 |
| 20260504232411 | 79 | 227 | 7.0 | 11.0 | 0.00 | 0.00 | 0.00 | 74 | 1008.6 |
| 20260504231908 | 80 | 156 | 9.0 | 11.0 | 0.00 | 0.00 | 0.00 | 74 | 1008.7 |
| 20260504231404 | 80 | 191 | 2.0 | 8.0 | 0.00 | 0.00 | 0.00 | 73 | 1008.8 |
| 20260504230901 | 80 | 209 | 3.0 | 7.0 | 0.00 | 0.00 | 0.00 | 73 | 1008.9 |
| 20260504230358 | 80 | 148 | 5.0 | 11.0 | 0.00 | 0.00 | 0.00 | 73 | 1008.8 |
| 20260504225857 | 80 | 0 | 0.0 | 7.0 | 0.00 | 0.00 | 0.00 | 73 | 1008.6 |
| 20260504225353 | 81 | 176 | 2.0 | 6.0 | 0.00 | 0.00 | 0.00 | 72 | 1008.7 |
| 20260504224851 | 82 | 178 | 7.0 | 11.0 | 0.00 | 0.00 | 0.00 | 69 | 1008.6 |
| 20260504224347 | 82 | 172 | 5.0 | 14.0 | 0.00 | 0.00 | 0.00 | 68 | 1008.8 |
| 20260504223844 | 82 | 198 | 3.0 | 10.0 | 0.00 | 0.00 | 0.00 | 68 | 1008.9 |
| 20260504223339 | 81 | 197 | 4.0 | 8.0 | 0.00 | 0.00 | 0.00 | 70 | 1009.0 |
| 20260504222836 | 81 | 218 | 4.0 | 10.0 | 0.00 | 0.00 | 0.00 | 70 | 1009.1 |
| 20260504222333 | 82 | 174 | 5.0 | 8.0 | 0.00 | 0.00 | 0.00 | 67 | 1009.0 |
| 20260504221832 | 82 | 229 | 4.0 | 6.0 | 0.00 | 0.00 | 0.00 | 70 | 1009.1 |
| 20260504221328 | 82 | 201 | 2.0 | 9.0 | 0.00 | 0.00 | 0.00 | 69 | 1008.9 |
| 20260504220825 | 82 | 165 | 4.0 | 15.0 | 0.00 | 0.00 | 0.00 | 69 | 1009.3 |
| 20260504220322 | 83 | 213 | 4.0 | 8.0 | 0.00 | 0.00 | 0.00 | 69 | 1008.9 |
| 20260504215819 | 81 | 233 | 3.0 | 5.0 | 0.00 | 0.00 | 0.00 | 71 | 1009.0 |
| 20260504215315 | 82 | 116 | 5.0 | 8.0 | 0.00 | 0.00 | 0.00 | 69 | 1009.3 |
| 20260504214811 | 81 | 216 | 14.0 | 17.0 | 0.00 | 0.00 | 0.00 | 69 | 1009.3 |
| 20260504214309 | 83 | 236 | 0.0 | 7.0 | 0.00 | 0.00 | 0.00 | 69 | 1009.1 |
| 20260504213805 | 81 | 225 | 6.0 | 9.0 | 0.00 | 0.00 | 0.00 | 70 | 1009.5 |
| 20260504213301 | 82 | 223 | 4.0 | 9.0 | 0.00 | 0.00 | 0.00 | 69 | 1009.5 |
| 20260504212759 | 82 | 208 | 3.0 | 8.0 | 0.00 | 0.00 | 0.00 | 69 | 1009.4 |
| 20260504212255 | 81 | 186 | 4.0 | 10.0 | 0.00 | 0.00 | 0.00 | 71 | 1009.7 |
| 20260504211752 | 81 | 217 | 14.0 | 14.0 | 0.00 | 0.00 | 0.00 | 69 | 1009.8 |
| 20260504211248 | 81 | 135 | 3.0 | 8.0 | 0.00 | 0.00 | 0.00 | 70 | 1009.9 |
| 20260504210746 | 81 | 192 | 4.0 | 14.0 | 0.00 | 0.00 | 0.00 | 70 | 1009.9 |
| 20260504210243 | 81 | 192 | 2.0 | 11.0 | 0.00 | 0.00 | 0.00 | 70 | 1010.2 |
| 20260504205740 | 81 | 160 | 6.0 | 7.0 | 0.00 | 0.00 | 0.00 | 69 | 1010.0 |
| 20260504205238 | 81 | 207 | 5.0 | 11.0 | 0.00 | 0.00 | 0.00 | 71 | 1010.6 |
| 20260504204736 | 81 | 212 | 14.0 | 14.0 | 0.00 | 0.00 | 0.00 | 69 | 1010.4 |
| 20260504204234 | 81 | 185 | 2.0 | 9.0 | 0.00 | 0.00 | 0.00 | 70 | 1010.6 |
| 20260504203733 | 81 | 205 | 6.0 | 11.0 | 0.00 | 0.00 | 0.00 | 69 | 1010.7 |
| 20260504203230 | 80 | 211 | 5.0 | 7.0 | 0.00 | 0.00 | 0.00 | 70 | 1010.9 |
| 20260504202730 | 81 | 180 | 0.0 | 8.0 | 0.00 | 0.00 | 0.00 | 68 | 1010.8 |
| 20260504202227 | 81 | 232 | 4.0 | 10.0 | 0.00 | 0.00 | 0.00 | 69 | 1010.8 |
| 20260504201724 | 81 | 204 | 9.0 | 13.0 | 0.00 | 0.00 | 0.00 | 68 | 1010.8 |
| 20260504201221 | 80 | 207 | 15.0 | 17.0 | 0.00 | 0.00 | 0.00 | 68 | 1011.1 |
| 20260504200719 | 80 | 157 | 9.0 | 12.0 | 0.00 | 0.00 | 0.00 | 67 | 1011.3 |
| 20260504200215 | 80 | 135 | 4.0 | 12.0 | 0.00 | 0.00 | 0.00 | 69 | 1011.1 |
| 20260504195711 | 80 | 229 | 5.0 | 9.0 | 0.00 | 0.00 | 0.00 | 71 | 1011.2 |
| 20260504195207 | 80 | 218 | 5.0 | 13.0 | 0.00 | 0.00 | 0.00 | 71 | 1011.2 |
| 20260504194704 | 80 | 220 | 2.0 | 9.0 | 0.00 | 0.00 | 0.00 | 70 | 1011.4 |
| 20260504194201 | 80 | 159 | 8.0 | 11.0 | 0.00 | 0.00 | 0.00 | 69 | 1011.4 |
| 20260504193657 | 80 | 177 | 5.0 | 7.0 | 0.00 | 0.00 | 0.00 | 69 | 1011.7 |
| 20260504193155 | 80 | 219 | 4.0 | 11.0 | 0.00 | 0.00 | 0.00 | 71 | 1011.8 |
| 20260504192652 | 80 | 180 | 4.0 | 5.0 | 0.00 | 0.00 | 0.00 | 70 | 1011.9 |
| 20260504192150 | 79 | 221 | 6.0 | 11.0 | 0.00 | 0.00 | 0.00 | 72 | 1011.9 |
| 20260504191649 | 78 | 226 | 4.0 | 11.0 | 0.00 | 0.00 | 0.00 | 72 | 1011.8 |
| 20260504191144 | 79 | 206 | 6.0 | 12.0 | 0.00 | 0.00 | 0.00 | 72 | 1011.9 |
| 20260504190640 | 80 | 228 | 7.0 | 11.0 | 0.00 | 0.00 | 0.00 | 71 | 1012.1 |
| 20260504190137 | 79 | 169 | 7.0 | 9.0 | 0.00 | 0.00 | 0.00 | 71 | 1012.1 |
| 20260504185633 | 78 | 206 | 11.0 | 13.0 | 0.00 | 0.00 | 0.00 | 72 | 1012.1 |
| 20260504185130 | 78 | 183 | 5.0 | 15.0 | 0.00 | 0.00 | 0.00 | 71 | 1012.4 |
| 20260504184626 | 78 | 208 | 5.0 | 8.0 | 0.00 | 0.00 | 0.00 | 70 | 1012.1 |
| 20260504184121 | 78 | 232 | 4.0 | 11.0 | 0.00 | 0.00 | 0.00 | 74 | 1012.5 |
| 20260504183619 | 78 | 235 | 3.0 | 9.0 | 0.00 | 0.00 | 0.00 | 73 | 1012.3 |
| 20260504183116 | 77 | 186 | 3.0 | 13.0 | 0.00 | 0.00 | 0.00 | 73 | 1012.7 |
| 20260504182614 | 77 | 222 | 10.0 | 13.0 | 0.00 | 0.00 | 0.00 | 73 | 1012.3 |
| 20260504182111 | 77 | 212 | 9.0 | 13.0 | 0.00 | 0.00 | 0.00 | 71 | 1013.0 |
| 20260504181608 | 78 | 177 | 5.0 | 12.0 | 0.00 | 0.00 | 0.00 | 71 | 1012.7 |
| 20260504181106 | 77 | 226 | 7.0 | 13.0 | 0.00 | 0.00 | 0.00 | 73 | 1013.0 |
| 20260504180605 | 77 | 206 | 13.0 | 15.0 | 0.00 | 0.00 | 0.00 | 71 | 1013.1 |
| 20260504180103 | 77 | 222 | 3.0 | 8.0 | 0.00 | 0.00 | 0.00 | 71 | 1013.0 |
| 20260504175600 | 79 | 212 | 2.0 | 7.0 | 0.00 | 0.00 | 0.00 | 71 | 1013.5 |
| 20260504175057 | 77 | 229 | 5.0 | 12.0 | 0.00 | 0.00 | 0.00 | 71 | 1013.1 |
| 20260504174555 | 77 | 191 | 3.0 | 9.0 | 0.00 | 0.00 | 0.00 | 70 | 1013.4 |
| 20260504174051 | 78 | 205 | 8.0 | 10.0 | 0.00 | 0.00 | 0.00 | 71 | 1013.1 |
| 20260504173548 | 77 | 217 | 10.0 | 14.0 | 0.00 | 0.00 | 0.00 | 70 | 1013.2 |
| 20260504173046 | 78 | 194 | 3.0 | 10.0 | 0.00 | 0.00 | 0.00 | 71 | 1013.5 |
| 20260504172541 | 78 | 223 | 5.0 | 13.0 | 0.00 | 0.00 | 0.00 | 69 | 1013.5 |
| 20260504172038 | 77 | 227 | 16.0 | 21.0 | 0.00 | 0.00 | 0.00 | 71 | 1013.4 |
| 20260504171535 | 78 | 192 | 7.0 | 13.0 | 0.00 | 0.00 | 0.00 | 70 | 1013.4 |
| 20260504171032 | 77 | 197 | 5.0 | 11.0 | 0.00 | 0.00 | 0.00 | 70 | 1013.4 |
| 20260504170528 | 78 | 209 | 5.0 | 7.0 | 0.00 | 0.00 | 0.00 | 70 | 1013.7 |
| 20260504150912 | 72 | 207 | 8.0 | 14.0 | 0.00 | 0.00 | 0.00 | 77 | 1014.8 |
| 20260504150409 | 73 | 143 | 8.0 | 12.0 | 0.00 | 0.00 | 0.00 | 78 | 1014.6 |
| 20260504140835 | 69 | 201 | 4.0 | 10.0 | 0.00 | 0.00 | 0.00 | 78 | 1014.9 |
| 20260504140331 | 69 | 125 | 5.0 | 13.0 | 0.00 | 0.00 | 0.00 | 79 | 1014.8 |
| 20260504130800 | 65 | 243 | 2.0 | 4.0 | 0.00 | 0.00 | 0.00 | 83 | 1014.7 |
| 20260504130256 | 64 | 195 | 1.0 | 3.0 | 0.00 | 0.00 | 0.00 | 85 | 1015.0 |
| 20260504120214 | 54 | 81 | 0.0 | 0.0 | 0.00 | 0.00 | 0.00 | 99 | 1014.4 |
| 20260504110641 | 54 | 15 | 0.0 | 1.0 | 0.00 | 0.00 | 0.00 | 99 | 1014.3 |
| 20260504110137 | 54 | 90 | 0.0 | 1.0 | 0.00 | 0.00 | 0.00 | 99 | 1014.2 |
| 20260504100557 | 55 | 0 | 0.0 | 0.0 | 0.00 | 0.00 | 0.00 | 97 | 1014.4 |
| 20260504081951 | 60 | 201 | 0.0 | 2.0 | 0.00 | 0.00 | 0.00 | 88 | 1015.2 |
| 20260504081449 | 60 | 126 | 0.0 | 0.0 | 0.00 | 0.00 | 0.00 | 88 | 1015.3 |
| 20260504080944 | 60 | 262 | 0.0 | 1.0 | 0.00 | 0.00 | 0.00 | 88 | 1015.1 |
| 20260504080441 | 60 | 255 | 0.0 | 2.0 | 0.00 | 0.00 | 0.00 | 88 | 1015.1 |
| 20260504070409 | 62 | 142 | 0.0 | 3.0 | 0.00 | 0.00 | 0.00 | 84 | 1016.2 |
| 20260504050749 | 63 | 210 | 3.0 | 5.0 | 0.00 | 0.00 | 0.00 | 83 | 1016.9 |
| 20260504050247 | 63 | 235 | 2.0 | 4.0 | 0.00 | 0.00 | 0.00 | 83 | 1017.2 |
| 20260504045745 | 63 | 225 | 2.0 | 4.0 | 0.00 | 0.00 | 0.00 | 84 | 1017.0 |
| 20260504045239 | 62 | 109 | 3.0 | 3.0 | 0.00 | 0.00 | 0.00 | 84 | 1017.1 |
| 20260504044737 | 62 | 174 | 1.0 | 3.0 | 0.00 | 0.00 | 0.00 | 84 | 1017.0 |
| 20260504044234 | 62 | 246 | 0.0 | 3.0 | 0.00 | 0.00 | 0.00 | 83 | 1017.2 |
| 20260504043731 | 63 | 117 | 1.0 | 2.0 | 0.00 | 0.00 | 0.00 | 83 | 1017.2 |
| 20260504043228 | 63 | 173 | 0.0 | 3.0 | 0.00 | 0.00 | 0.00 | 83 | 1017.4 |
| 20260504042726 | 63 | 206 | 0.0 | 3.0 | 0.00 | 0.00 | 0.00 | 82 | 1017.3 |
| 20260504042222 | 63 | 120 | 1.0 | 4.0 | 0.00 | 0.00 | 0.00 | 82 | 1017.2 |
| 20260504041718 | 63 | 202 | 0.0 | 3.0 | 0.00 | 0.00 | 0.00 | 82 | 1017.5 |
| 20260504041214 | 63 | 151 | 0.0 | 2.0 | 0.00 | 0.00 | 0.00 | 82 | 1017.3 |
| 20260504040711 | 63 | 142 | 0.0 | 3.0 | 0.00 | 0.00 | 0.00 | 81 | 1017.3 |
| 20260504040208 | 63 | 123 | 0.0 | 0.0 | 0.00 | 0.00 | 0.00 | 81 | 1017.4 |
| 20260504035704 | 63 | 151 | 3.0 | 3.0 | 0.00 | 0.00 | 0.00 | 80 | 1017.6 |
| 20260504035202 | 64 | 240 | 0.0 | 3.0 | 0.00 | 0.00 | 0.00 | 80 | 1017.4 |
| 20260504034659 | 64 | 221 | 0.0 | 3.0 | 0.00 | 0.00 | 0.00 | 79 | 1017.7 |
| 20260504034156 | 64 | 135 | 3.0 | 3.0 | 0.00 | 0.00 | 0.00 | 79 | 1017.5 |
| 20260504033654 | 64 | 180 | 0.0 | 4.0 | 0.00 | 0.00 | 0.00 | 79 | 1017.3 |
| 20260504033150 | 64 | 138 | 3.0 | 3.0 | 0.00 | 0.00 | 0.00 | 79 | 1017.4 |
| 20260504032647 | 64 | 90 | 1.0 | 4.0 | 0.00 | 0.00 | 0.00 | 79 | 1017.2 |
| 20260504032144 | 63 | 156 | 0.0 | 4.0 | 0.00 | 0.00 | 0.00 | 78 | 1017.2 |
| 20260504031641 | 63 | 203 | 1.0 | 4.0 | 0.00 | 0.00 | 0.00 | 80 | 1017.2 |
| 20260504031137 | 62 | 203 | 0.0 | 3.0 | 0.00 | 0.00 | 0.00 | 82 | 1017.1 |
| 20260504030634 | 60 | 165 | 1.0 | 3.0 | 0.00 | 0.00 | 0.00 | 89 | 1017.1 |
| 20260504030131 | 60 | 140 | 0.0 | 2.0 | 0.00 | 0.00 | 0.00 | 88 | 1017.0 |
| 20260504025628 | 59 | 81 | 0.0 | 0.0 | 0.00 | 0.00 | 0.00 | 85 | 1016.9 |
| 20260504025124 | 60 | 81 | 0.0 | 0.0 | 0.00 | 0.00 | 0.00 | 84 | 1016.9 |
| 20260504024622 | 60 | 81 | 0.0 | 0.0 | 0.00 | 0.00 | 0.00 | 83 | 1017.0 |
| 20260504024118 | 61 | 81 | 0.0 | 0.0 | 0.00 | 0.00 | 0.00 | 82 | 1016.8 |
| 20260504023615 | 61 | 81 | 0.0 | 0.0 | 0.00 | 0.00 | 0.00 | 80 | 1016.8 |
| 20260504023111 | 62 | 81 | 0.0 | 0.0 | 0.00 | 0.00 | 0.00 | 80 | 1016.6 |
| 20260504022607 | 62 | 81 | 0.0 | 0.0 | 0.00 | 0.00 | 0.00 | 77 | 1016.7 |
| 20260504022103 | 63 | 81 | 0.0 | 0.0 | 0.00 | 0.00 | 0.00 | 76 | 1016.5 |
| 20260504021601 | 63 | 81 | 0.0 | 0.0 | 0.00 | 0.00 | 0.00 | 75 | 1016.7 |
| 20260504021058 | 64 | 81 | 0.0 | 0.0 | 0.00 | 0.00 | 0.00 | 75 | 1016.6 |